This is the latest recevied weather packets stored in our database for station/object KD5VOO. If no packets are shown the sender has not sent any weather packets the latest 10 day(s).
| Time | Temp. | Humidity | Pressure | Rain* | Wind** | Luminosity | Snow |
|---|---|---|---|---|---|---|---|
| 1777703925 | 11.67° C | 79% | 1010.9 hPa | 1.78 mm | - | 0 W/m² | - |
| 1777703622 | 11.67° C | 79% | 1010.9 hPa | 3.56 mm | - | 0 W/m² | - |
| 1777703320 | 11.67° C | 79% | 1010.9 hPa | 3.56 mm | - | 0 W/m² | - |
| 1777703017 | 11.67° C | 79% | 1011.2 hPa | 1.78 mm | - | 0 W/m² | - |
| 1777702716 | 11.67° C | 79% | 1011.2 hPa | 0 mm | - | 0 W/m² | - |
| 1777702413 | 11.67° C | 79% | 1011.5 hPa | 1.78 mm | - | 0 W/m² | - |
| 1777702109 | 11.67° C | 79% | 1011.5 hPa | 3.56 mm | - | 0 W/m² | - |
| 1777701804 | 11.67° C | 79% | 1011.2 hPa | 3.56 mm | - | 0 W/m² | - |
| 1777701502 | 11.67° C | 79% | 1011.5 hPa | 3.56 mm | - | 0 W/m² | - |
| 1777701200 | 11.67° C | 79% | 1011.2 hPa | 3.56 mm | - | 0 W/m² | - |
| 1777700899 | 11.67° C | 79% | 1011.5 hPa | 3.56 mm | - | 0 W/m² | - |
| 1777700596 | 11.67° C | 79% | 1011.5 hPa | 5.33 mm | - | 0 W/m² | - |
| 1777700294 | 11.67° C | 79% | 1011.2 hPa | 3.56 mm | - | 0 W/m² | - |
| 1777699991 | 11.67° C | 79% | 1011.5 hPa | 3.56 mm | - | 0 W/m² | - |
| 1777699688 | 11.67° C | 79% | 1011.5 hPa | 3.56 mm | - | 0 W/m² | - |
| 1777699386 | 11.67° C | 79% | 1011.5 hPa | 0 mm | - | 0 W/m² | - |
| 1777699084 | 11.67° C | 79% | 1011.5 hPa | 1.78 mm | - | 0 W/m² | - |
| 1777698783 | 11.67° C | 79% | 1011.2 hPa | 1.78 mm | - | 0 W/m² | - |
| 1777698478 | 11.67° C | 79% | 1011.2 hPa | 0 mm | - | 0 W/m² | - |
| 1777698174 | 11.67° C | 79% | 1010.9 hPa | 0 mm | - | 0 W/m² | - |
| 1777697872 | 11.67° C | 79% | 1011.5 hPa | 0 mm | - | 0 W/m² | - |
| 1777697568 | 11.67° C | 79% | 1011.2 hPa | 0 mm | - | 0 W/m² | - |
| 1777697265 | 11.67° C | 79% | 1011.2 hPa | 0 mm | - | 0 W/m² | - |
| 1777696961 | 11.67° C | 79% | 1010.9 hPa | 0 mm | - | 0 W/m² | - |
| 1777696659 | 11.67° C | 79% | 1010.9 hPa | 0 mm | - | 0 W/m² | - |
* Rain latest hour (hover to see other rain measurements)
** Current wind speed in m/s (hover to see current wind gust speed)